Time,TemperatureF,DewpointF,PressureIn,WindDirection,WindDirectionDegrees,WindSpeedMPH,WindSpeedGustMPH,Humidity,HourlyPrecipIn,Conditions,Clouds,dailyrainin,SoftwareType,DateUTC
2013-02-22 00:00:00,22.8,16.3,-100.00,NNW,348,0.0,13.0,76,0.00,,,0.00,meteohub,2013-02-22 05:00:00,
2013-02-22 00:01:00,22.6,16.2,-100.00,NNW,347,9.0,13.0,76,0.00,,,0.00,meteohub,2013-02-22 05:01:00,
2013-02-22 00:03:00,22.6,16.2,-100.00,NNW,329,3.0,13.0,76,0.00,,,0.00,meteohub,2013-02-22 05:03:00,
2013-02-22 00:05:00,23.2,17.1,-100.00,North,358,4.0,13.0,77,0.00,,,0.00,meteohub,2013-02-22 05:05:00,
2013-02-22 00:10:00,23.2,17.4,-100.00,NNE,14,9.0,13.0,78,0.00,,,0.00,meteohub,2013-02-22 05:10:00,
2013-02-22 00:15:00,22.8,17.1,-100.00,NW,317,4.0,13.0,78,0.00,,,0.00,meteohub,2013-02-22 05:15:00,
2013-02-22 00:20:00,23.2,17.4,-100.00,NNW,345,8.0,13.0,78,0.00,,,0.00,meteohub,2013-02-22 05:20:00,
2013-02-22 00:25:00,22.5,16.7,-100.00,NNW,340,6.0,13.0,78,0.00,,,0.00,meteohub,2013-02-22 05:25:00,
2013-02-22 00:30:00,23.2,17.4,-100.00,NW,309,6.0,13.0,78,0.00,,,0.00,meteohub,2013-02-22 05:30:00,
2013-02-22 00:35:00,23.2,17.4,-100.00,NW,326,6.0,12.0,78,0.00,,,0.00,meteohub,2013-02-22 05:35:00,
2013-02-22 00:40:00,22.6,17.1,-100.00,North,350,8.0,12.0,79,0.00,,,0.00,meteohub,2013-02-22 05:40:00,
2013-02-22 00:45:00,23.4,17.6,-100.00,NNW,336,5.0,18.0,78,0.00,,,0.00,meteohub,2013-02-22 05:45:00,
2013-02-22 00:51:00,23.4,17.8,-100.00,NNW,341,5.0,18.0,79,0.00,,,0.00,meteohub,2013-02-22 05:51:00,
2013-02-22 00:56:00,23.2,17.4,-100.00,NW,312,5.0,18.0,78,0.00,,,0.00,meteohub,2013-02-22 05:56:00,
2013-02-22 01:01:00,22.8,17.1,-100.00,NNW,348,5.0,15.0,78,0.00,,,0.00,meteohub,2013-02-22 06:01:00,
2013-02-22 01:06:00,23.7,18.0,-100.00,NNW,348,5.0,13.0,78,0.00,,,0.00,meteohub,2013-02-22 06:06:00,
2013-02-22 01:11:00,23.7,18.0,-100.00,NW,320,5.0,13.0,78,0.00,,,0.00,meteohub,2013-02-22 06:11:00,
2013-02-22 01:16:00,23.2,17.1,-100.00,NW,316,2.0,15.0,77,0.00,,,0.00,meteohub,2013-02-22 06:16:00,
2013-02-22 01:21:00,24.3,18.1,-100.00,North,354,4.0,15.0,77,0.00,,,0.00,meteohub,2013-02-22 06:21:00,
2013-02-22 01:26:00,23.7,17.6,-100.00,NW,324,4.0,11.0,77,0.00,,,0.00,meteohub,2013-02-22 06:26:00,
2013-02-22 01:31:00,24.1,18.0,-100.00,North,8,0.0,10.0,77,0.00,,,0.00,meteohub,2013-02-22 06:31:00,
2013-02-22 01:36:00,23.4,17.6,-100.00,NW,323,4.0,11.0,78,0.00,,,0.00,meteohub,2013-02-22 06:36:00,
2013-02-22 01:41:00,23.4,17.6,-100.00,North,355,2.0,11.0,78,0.00,,,0.00,meteohub,2013-02-22 06:41:00,
2013-02-22 01:46:00,23.7,18.0,-100.00,NW,319,4.0,11.0,78,0.00,,,0.00,meteohub,2013-02-22 06:46:00,
2013-02-22 01:51:00,23.4,17.6,-100.00,North,352,5.0,11.0,78,0.00,,,0.00,meteohub,2013-02-22 06:51:00,
2013-02-22 01:56:00,24.3,18.3,-100.00,North,355,6.0,11.0,78,0.00,,,0.00,meteohub,2013-02-22 06:56:00,
2013-02-22 02:01:00,23.2,17.4,-100.00,North,358,4.0,11.0,78,0.00,,,0.00,meteohub,2013-02-22 07:01:00,
2013-02-22 02:07:00,23.7,18.0,-100.00,NW,317,2.0,11.0,78,0.00,,,0.00,meteohub,2013-02-22 07:07:00,
2013-02-22 02:12:00,23.7,18.1,-100.00,NNW,347,4.0,11.0,79,0.00,,,0.00,meteohub,2013-02-22 07:12:00,
2013-02-22 02:17:00,24.3,18.7,-100.00,NW,315,0.0,11.0,79,0.00,,,0.00,meteohub,2013-02-22 07:17:00,
2013-02-22 02:22:00,23.4,17.8,-100.00,NW,319,3.0,10.0,79,0.00,,,0.00,meteohub,2013-02-22 07:22:00,
2013-02-22 02:27:00,23.4,17.8,-100.00,NNW,333,0.0,10.0,79,0.00,,,0.00,meteohub,2013-02-22 07:27:00,
2013-02-22 02:32:00,23.4,17.8,-100.00,North,357,0.0,8.0,79,0.00,,,0.00,meteohub,2013-02-22 07:32:00,
2013-02-22 02:37:00,23.4,17.8,-100.00,NNE,25,2.0,6.0,79,0.00,,,0.00,meteohub,2013-02-22 07:37:00,
2013-02-22 02:42:00,23.2,17.6,-100.00,NNW,348,1.0,6.0,79,0.00,,,0.00,meteohub,2013-02-22 07:42:00,
2013-02-22 02:47:00,23.2,18.0,-100.00,NNW,340,2.0,6.0,80,0.00,,,0.00,meteohub,2013-02-22 07:47:00,
2013-02-22 02:52:00,23.2,18.0,-100.00,North,358,3.0,10.0,80,0.00,,,0.00,meteohub,2013-02-22 07:52:00,
2013-02-22 02:57:00,23.7,18.1,-100.00,NNW,337,1.0,10.0,79,0.00,,,0.00,meteohub,2013-02-22 07:57:00,
2013-02-22 03:02:00,23.2,18.0,-100.00,NNE,12,2.0,10.0,80,0.00,,,0.00,meteohub,2013-02-22 08:02:00,
2013-02-22 03:07:00,22.8,17.6,-100.00,North,2,0.0,9.0,80,0.00,,,0.00,meteohub,2013-02-22 08:07:00,
2013-02-22 03:12:00,23.2,18.0,-100.00,NNW,345,4.0,9.0,80,0.00,,,0.00,meteohub,2013-02-22 08:12:00,
2013-02-22 03:17:00,23.4,18.1,-100.00,NE,39,3.0,8.0,80,0.00,,,0.00,meteohub,2013-02-22 08:17:00,
2013-02-22 03:22:00,23.2,18.0,-100.00,West,260,0.0,8.0,80,0.00,,,0.00,meteohub,2013-02-22 08:22:00,
2013-02-22 03:27:00,22.8,17.6,-100.00,North,350,0.0,8.0,80,0.00,,,0.00,meteohub,2013-02-22 08:27:00,
2013-02-22 03:32:00,23.2,18.0,-100.00,North,350,0.0,6.0,80,0.00,,,0.00,meteohub,2013-02-22 08:32:00,
2013-02-22 03:37:00,22.8,17.6,-100.00,North,350,0.0,5.0,80,0.00,,,0.00,meteohub,2013-02-22 08:37:00,
2013-02-22 03:42:00,22.8,17.6,-100.00,North,350,0.0,5.0,80,0.00,,,0.00,meteohub,2013-02-22 08:42:00,
2013-02-22 03:47:00,23.4,18.3,-100.00,North,350,0.0,0.0,81,0.00,,,0.00,meteohub,2013-02-22 08:47:00,
2013-02-22 03:52:00,22.5,17.6,-100.00,North,350,0.0,0.0,81,0.00,,,0.00,meteohub,2013-02-22 08:52:00,
2013-02-22 03:57:00,22.6,17.8,-100.00,North,350,0.0,0.0,81,0.00,,,0.00,meteohub,2013-02-22 08:57:00,
2013-02-22 04:02:00,22.1,17.2,-100.00,North,350,0.0,0.0,81,0.00,,,0.00,meteohub,2013-02-22 09:02:00,
2013-02-22 04:07:00,22.1,17.2,-100.00,North,350,0.0,0.0,81,0.00,,,0.00,meteohub,2013-02-22 09:07:00,
2013-02-22 04:12:00,23.2,18.1,-100.00,North,350,0.0,0.0,81,0.00,,,0.00,meteohub,2013-02-22 09:12:00,
2013-02-22 04:17:00,23.2,18.1,-100.00,North,350,0.0,0.0,81,0.00,,,0.00,meteohub,2013-02-22 09:17:00,
2013-02-22 04:22:00,21.6,16.7,-100.00,North,350,0.0,0.0,81,0.00,,,0.00,meteohub,2013-02-22 09:22:00,
2013-02-22 04:27:00,22.1,17.4,-100.00,North,350,0.0,0.0,82,0.00,,,0.00,meteohub,2013-02-22 09:27:00,
2013-02-22 04:32:00,21.9,17.2,-100.00,North,350,0.0,0.0,82,0.00,,,0.00,meteohub,2013-02-22 09:32:00,
2013-02-22 04:37:00,22.1,17.4,-100.00,North,350,0.0,0.0,82,0.00,,,0.00,meteohub,2013-02-22 09:37:00,
2013-02-22 04:42:00,23.4,19.8,-100.00,North,350,0.0,0.0,86,0.00,,,0.00,meteohub,2013-02-22 09:42:00,
2013-02-22 04:47:00,23.4,20.8,-100.00,North,350,0.0,0.0,90,0.00,,,0.00,meteohub,2013-02-22 09:47:00,
2013-02-22 04:52:00,24.3,22.5,-100.00,North,350,0.0,0.0,93,0.00,,,0.00,meteohub,2013-02-22 09:52:00,
2013-02-22 04:57:00,24.4,23.0,-100.00,North,350,0.0,0.0,94,0.00,,,0.00,meteohub,2013-02-22 09:57:00,
2013-02-22 05:02:00,24.8,23.4,-100.00,North,350,0.0,0.0,94,0.00,,,0.00,meteohub,2013-02-22 10:02:00,
2013-02-22 05:07:00,23.7,22.3,-100.00,North,350,0.0,0.0,94,0.00,,,0.00,meteohub,2013-02-22 10:07:00,
2013-02-22 05:12:00,23.7,22.8,-100.00,North,350,0.0,0.0,96,0.00,,,0.00,meteohub,2013-02-22 10:12:00,
2013-02-22 05:17:00,23.2,22.5,-100.00,North,350,0.0,0.0,97,0.00,,,0.00,meteohub,2013-02-22 10:17:00,
2013-02-22 05:22:00,24.1,23.2,-100.00,North,350,0.0,0.0,96,0.00,,,0.00,meteohub,2013-02-22 10:22:00,
2013-02-22 05:27:00,23.2,22.3,-100.00,North,350,0.0,0.0,96,0.00,,,0.00,meteohub,2013-02-22 10:27:00,
2013-02-22 05:32:00,23.2,22.3,-100.00,North,350,0.0,0.0,96,0.00,,,0.00,meteohub,2013-02-22 10:32:00,
2013-02-22 05:37:00,22.5,21.6,-100.00,North,350,0.0,0.0,96,0.00,,,0.00,meteohub,2013-02-22 10:37:00,
2013-02-22 05:42:00,22.1,21.2,-100.00,North,350,0.0,0.0,96,0.00,,,0.00,meteohub,2013-02-22 10:42:00,
2013-02-22 05:48:00,21.4,20.5,-100.00,North,350,0.0,0.0,96,0.00,,,0.00,meteohub,2013-02-22 10:48:00,
2013-02-22 05:53:00,21.4,20.5,-100.00,North,350,0.0,0.0,96,0.00,,,0.00,meteohub,2013-02-22 10:53:00,
2013-02-22 05:58:00,21.6,20.7,-100.00,North,350,0.0,0.0,96,0.00,,,0.00,meteohub,2013-02-22 10:58:00,
2013-02-22 06:03:00,21.0,20.1,-100.00,North,350,0.0,0.0,96,0.00,,,0.00,meteohub,2013-02-22 11:03:00,
2013-02-22 06:08:00,20.8,19.6,-100.00,North,350,0.0,0.0,95,0.00,,,0.00,meteohub,2013-02-22 11:08:00,
2013-02-22 06:13:00,20.8,19.6,-100.00,North,350,0.0,0.0,95,0.00,,,0.00,meteohub,2013-02-22 11:13:00,
2013-02-22 06:18:00,20.8,19.4,-100.00,North,350,0.0,0.0,94,0.00,,,0.00,meteohub,2013-02-22 11:18:00,
2013-02-22 06:23:00,20.5,18.5,-100.00,North,350,0.0,0.0,92,0.00,,,0.00,meteohub,2013-02-22 11:23:00,
2013-02-22 06:28:00,21.0,18.5,-100.00,North,350,0.0,0.0,90,0.00,,,0.00,meteohub,2013-02-22 11:28:00,
2013-02-22 06:33:00,21.0,18.5,-100.00,North,350,0.0,0.0,90,0.00,,,0.00,meteohub,2013-02-22 11:33:00,
2013-02-22 06:38:00,20.8,18.3,-100.00,North,350,0.0,0.0,90,0.00,,,0.00,meteohub,2013-02-22 11:38:00,
2013-02-22 06:43:00,20.3,17.6,-100.00,North,350,0.0,0.0,89,0.00,,,0.00,meteohub,2013-02-22 11:43:00,
2013-02-22 06:48:00,20.5,17.8,-100.00,North,350,0.0,0.0,89,0.00,,,0.00,meteohub,2013-02-22 11:48:00,
2013-02-22 06:54:00,21.0,18.3,-100.00,North,350,0.0,0.0,89,0.00,,,0.00,meteohub,2013-02-22 11:54:00,
2013-02-22 06:59:00,21.4,18.3,-100.00,North,350,0.0,0.0,88,0.00,,,0.00,meteohub,2013-02-22 11:59:00,
2013-02-22 07:04:00,22.1,19.0,-100.00,North,350,0.0,0.0,88,0.00,,,0.00,meteohub,2013-02-22 12:04:00,
2013-02-22 07:09:00,20.5,17.4,-100.00,NNE,26,4.0,0.0,88,0.00,,,0.00,meteohub,2013-02-22 12:09:00,
2013-02-22 07:14:00,21.9,18.9,-100.00,NNE,12,0.0,7.0,88,0.00,,,0.00,meteohub,2013-02-22 12:14:00,
2013-02-22 07:19:00,22.5,19.2,-100.00,North,4,3.0,7.0,87,0.00,,,0.00,meteohub,2013-02-22 12:19:00,
2013-02-22 07:24:00,21.9,18.7,-100.00,North,2,0.0,7.0,87,0.00,,,0.00,meteohub,2013-02-22 12:24:00,
2013-02-22 07:29:00,22.5,19.2,-100.00,North,2,0.0,6.0,87,0.00,,,0.00,meteohub,2013-02-22 12:29:00,
2013-02-22 07:34:00,21.9,18.7,-100.00,NE,36,4.0,6.0,87,0.00,,,0.00,meteohub,2013-02-22 12:34:00,
2013-02-22 07:39:00,22.3,18.7,-100.00,NE,40,1.0,9.0,86,0.00,,,0.00,meteohub,2013-02-22 12:39:00,
2013-02-22 07:44:00,22.1,18.3,-100.00,NE,39,2.0,9.0,85,0.00,,,0.00,meteohub,2013-02-22 12:44:00,
2013-02-22 07:49:00,22.1,18.3,-100.00,North,5,0.0,9.0,85,0.00,,,0.00,meteohub,2013-02-22 12:49:00,
2013-02-22 07:54:00,22.6,18.5,-100.00,North,5,0.0,7.0,84,0.00,,,0.00,meteohub,2013-02-22 12:54:00,
2013-02-22 07:59:00,22.5,18.3,-100.00,NE,47,0.0,7.0,84,0.00,,,0.00,meteohub,2013-02-22 12:59:00,
2013-02-22 08:04:00,23.2,18.9,-100.00,NE,39,2.0,6.0,83,0.00,,,0.00,meteohub,2013-02-22 13:04:00,
2013-02-22 08:10:00,24.3,19.6,-100.00,ESE,123,4.0,6.0,82,0.00,,,0.00,meteohub,2013-02-22 13:10:00,
2013-02-22 08:15:00,24.4,19.4,-100.00,NNE,19,1.0,9.0,81,0.00,,,0.00,meteohub,2013-02-22 13:15:00,
2013-02-22 08:20:00,26.1,21.0,-100.00,NNE,28,0.0,9.0,81,0.00,,,0.00,meteohub,2013-02-22 13:20:00,
2013-02-22 08:25:00,26.1,20.5,-100.00,NE,50,3.0,8.0,79,0.00,,,0.00,meteohub,2013-02-22 13:25:00,
2013-02-22 08:30:00,26.2,19.8,-100.00,ESE,118,7.0,9.0,76,0.00,,,0.00,meteohub,2013-02-22 13:30:00,
2013-02-22 08:35:00,28.4,21.2,-100.00,NNE,29,5.0,16.0,74,0.00,,,0.00,meteohub,2013-02-22 13:35:00,
2013-02-22 08:40:00,28.4,20.5,-100.00,NE,40,9.0,16.0,72,0.00,,,0.00,meteohub,2013-02-22 13:40:00,
2013-02-22 08:45:00,28.2,20.1,-100.00,NE,42,6.0,18.0,71,0.00,,,0.00,meteohub,2013-02-22 13:45:00,
2013-02-22 08:50:00,28.4,19.9,-100.00,ENE,60,6.0,18.0,70,0.00,,,0.00,meteohub,2013-02-22 13:50:00,
2013-02-22 08:55:00,30.0,21.0,-100.00,NE,39,2.0,15.0,69,0.00,,,0.00,meteohub,2013-02-22 13:55:00,
2013-02-22 09:00:00,30.6,21.2,-100.00,NE,43,1.0,13.0,68,0.00,,,0.00,meteohub,2013-02-22 14:00:00,
2013-02-22 09:05:00,30.9,21.9,-100.00,ENE,66,5.0,14.0,69,0.00,,,0.00,meteohub,2013-02-22 14:05:00,
2013-02-22 09:11:00,30.7,21.4,-100.00,East,88,14.0,14.0,68,0.00,,,0.00,meteohub,2013-02-22 14:11:00,
2013-02-22 09:16:00,30.2,22.6,-100.00,NNE,26,6.0,15.0,73,0.00,,,0.00,meteohub,2013-02-22 14:16:00,
2013-02-22 09:21:00,30.7,22.5,-100.00,NNE,28,0.0,15.0,71,0.00,,,0.00,meteohub,2013-02-22 14:21:00,
2013-02-22 09:26:00,31.3,21.2,-100.00,ESE,120,9.0,15.0,66,0.00,,,0.00,meteohub,2013-02-22 14:26:00,
2013-02-22 09:31:00,31.5,21.4,-100.00,North,2,6.0,17.0,66,0.00,,,0.00,meteohub,2013-02-22 14:31:00,
2013-02-22 09:36:00,31.5,21.4,-100.00,ENE,67,4.0,17.0,66,0.00,,,0.00,meteohub,2013-02-22 14:36:00,
2013-02-22 09:41:00,30.2,20.5,-100.00,NNE,22,6.0,17.0,67,0.00,,,0.00,meteohub,2013-02-22 14:41:00,
2013-02-22 09:46:00,31.5,20.7,-100.00,East,84,4.0,14.0,64,0.00,,,0.00,meteohub,2013-02-22 14:46:00,
2013-02-22 09:51:00,32.7,21.6,-100.00,ESE,106,8.0,12.0,63,0.00,,,0.00,meteohub,2013-02-22 14:51:00,
2013-02-22 09:57:00,32.4,20.8,-100.00,ENE,57,1.0,11.0,62,0.00,,,0.00,meteohub,2013-02-22 14:57:00,
2013-02-22 10:02:00,33.3,21.7,-100.00,East,84,6.0,11.0,62,0.00,,,0.00,meteohub,2013-02-22 15:02:00,
2013-02-22 10:07:00,32.5,21.0,-100.00,NE,36,6.0,11.0,62,0.00,,,0.00,meteohub,2013-02-22 15:07:00,
2013-02-22 10:12:00,33.3,21.2,-100.00,NE,43,5.0,11.0,61,0.00,,,0.00,meteohub,2013-02-22 15:12:00,
2013-02-22 10:17:00,32.7,20.3,-100.00,East,98,3.0,11.0,60,0.00,,,0.00,meteohub,2013-02-22 15:17:00,
2013-02-22 10:22:00,33.1,20.7,-100.00,ENE,61,0.0,10.0,60,0.00,,,0.00,meteohub,2013-02-22 15:22:00,
2013-02-22 10:27:00,33.6,21.2,-100.00,ESE,113,0.0,11.0,60,0.00,,,0.00,meteohub,2013-02-22 15:27:00,
2013-02-22 10:32:00,33.1,20.7,-100.00,NNE,15,1.0,11.0,60,0.00,,,0.00,meteohub,2013-02-22 15:32:00,
2013-02-22 10:37:00,33.6,21.2,-100.00,NE,45,6.0,11.0,60,0.00,,,0.00,meteohub,2013-02-22 15:37:00,
2013-02-22 10:42:00,33.6,20.8,-100.00,SE,133,2.0,8.0,59,0.00,,,0.00,meteohub,2013-02-22 15:42:00,
2013-02-22 10:47:00,34.5,21.7,-100.00,ESE,108,0.0,10.0,59,0.00,,,0.00,meteohub,2013-02-22 15:47:00,
2013-02-22 10:52:00,34.9,21.6,-100.00,East,81,2.0,10.0,58,0.00,,,0.00,meteohub,2013-02-22 15:52:00,
2013-02-22 10:57:00,34.2,20.5,-100.00,NE,40,0.0,11.0,57,0.00,,,0.00,meteohub,2013-02-22 15:57:00,
2013-02-22 11:02:00,34.9,20.8,-100.00,ESE,106,0.0,11.0,56,0.00,,,0.00,meteohub,2013-02-22 16:02:00,
2013-02-22 11:07:00,34.2,20.1,-100.00,North,8,0.0,11.0,56,0.00,,,0.00,meteohub,2013-02-22 16:07:00,
2013-02-22 11:12:00,34.3,20.7,-100.00,ESE,112,1.0,11.0,57,0.00,,,0.00,meteohub,2013-02-22 16:12:00,
2013-02-22 11:17:00,35.2,21.6,-100.00,SSE,161,0.0,10.0,57,0.00,,,0.00,meteohub,2013-02-22 16:17:00,
2013-02-22 11:22:00,35.2,21.9,-100.00,SE,137,0.0,10.0,58,0.00,,,0.00,meteohub,2013-02-22 16:22:00,
2013-02-22 11:27:00,35.6,21.9,-100.00,ESE,112,0.0,7.0,57,0.00,,,0.00,meteohub,2013-02-22 16:27:00,
2013-02-22 11:32:00,35.6,21.4,-100.00,SE,140,2.0,5.0,56,0.00,,,0.00,meteohub,2013-02-22 16:32:00,
2013-02-22 11:37:00,35.2,21.2,-100.00,SE,140,0.0,9.0,56,0.00,,,0.00,meteohub,2013-02-22 16:37:00,
2013-02-22 11:42:00,35.1,21.0,-100.00,South,178,0.0,9.0,56,0.00,,,0.00,meteohub,2013-02-22 16:42:00,
2013-02-22 11:47:00,36.3,22.1,-100.00,SE,137,0.0,9.0,56,0.00,,,0.00,meteohub,2013-02-22 16:47:00,
2013-02-22 11:52:00,35.6,21.0,-100.00,SSE,163,2.0,9.0,55,0.00,,,0.00,meteohub,2013-02-22 16:52:00,
2013-02-22 11:57:00,36.0,21.4,-100.00,ESE,123,2.0,7.0,55,0.00,,,0.00,meteohub,2013-02-22 16:57:00,
2013-02-22 12:02:00,37.6,22.5,-100.00,ESE,115,0.0,7.0,54,0.00,,,0.00,meteohub,2013-02-22 17:02:00,
2013-02-22 12:07:00,37.0,21.6,-100.00,SSE,158,0.0,6.0,53,0.00,,,0.00,meteohub,2013-02-22 17:07:00,
2013-02-22 12:12:00,36.3,20.3,-100.00,SSE,158,0.0,6.0,52,0.00,,,0.00,meteohub,2013-02-22 17:12:00,
2013-02-22 12:17:00,37.0,21.6,-100.00,NE,35,6.0,6.0,53,0.00,,,0.00,meteohub,2013-02-22 17:17:00,
2013-02-22 12:22:00,37.6,21.9,-100.00,NE,36,0.0,6.0,53,0.00,,,0.00,meteohub,2013-02-22 17:22:00,
2013-02-22 12:27:00,38.1,21.6,-100.00,ENE,63,0.0,6.0,51,0.00,,,0.00,meteohub,2013-02-22 17:27:00,
2013-02-22 12:32:00,38.5,21.9,-100.00,SSE,149,1.0,6.0,51,0.00,,,0.00,meteohub,2013-02-22 17:32:00,
2013-02-22 12:37:00,38.8,21.4,-100.00,East,101,0.0,7.0,49,0.00,,,0.00,meteohub,2013-02-22 17:37:00,
2013-02-22 12:42:00,38.7,21.2,-100.00,ESE,111,0.0,7.0,49,0.00,,,0.00,meteohub,2013-02-22 17:42:00,
2013-02-22 12:47:00,38.8,22.3,-100.00,East,95,4.0,7.0,51,0.00,,,0.00,meteohub,2013-02-22 17:47:00,
2013-02-22 12:52:00,38.5,21.0,-100.00,East,87,0.0,6.0,49,0.00,,,0.00,meteohub,2013-02-22 17:52:00,
2013-02-22 12:57:00,39.4,21.7,-100.00,SE,137,0.0,6.0,49,0.00,,,0.00,meteohub,2013-02-22 17:57:00,
2013-02-22 13:02:00,39.9,21.7,-100.00,NE,35,4.0,5.0,48,0.00,,,0.00,meteohub,2013-02-22 18:02:00,
2013-02-22 13:07:00,39.7,22.1,-100.00,ENE,64,0.0,5.0,49,0.00,,,0.00,meteohub,2013-02-22 18:07:00,
2013-02-22 13:12:00,39.7,21.7,-100.00,NE,37,1.0,5.0,48,0.00,,,0.00,meteohub,2013-02-22 18:12:00,
2013-02-22 13:17:00,38.8,22.3,-100.00,NNE,14,0.0,6.0,51,0.00,,,0.00,meteohub,2013-02-22 18:17:00,
2013-02-22 13:22:00,39.0,21.6,-100.00,NNE,14,0.0,6.0,49,0.00,,,0.00,meteohub,2013-02-22 18:22:00,
2013-02-22 13:27:00,39.7,22.6,-100.00,NNE,14,0.0,6.0,50,0.00,,,0.00,meteohub,2013-02-22 18:27:00,
2013-02-22 13:32:00,39.4,21.4,-100.00,NNE,18,0.0,5.0,48,0.00,,,0.00,meteohub,2013-02-22 18:32:00,
2013-02-22 13:37:00,38.7,21.6,-100.00,NNE,18,0.0,2.0,50,0.00,,,0.00,meteohub,2013-02-22 18:37:00,
2013-02-22 13:42:00,38.8,21.7,-100.00,NNE,18,0.0,2.0,50,0.00,,,0.00,meteohub,2013-02-22 18:42:00,
2013-02-22 13:47:00,37.6,19.2,-100.00,NNE,25,0.0,2.0,47,0.00,,,0.00,meteohub,2013-02-22 18:47:00,
2013-02-22 13:52:00,37.8,19.8,-100.00,NNE,25,0.0,2.0,48,0.00,,,0.00,meteohub,2013-02-22 18:52:00,
2013-02-22 13:57:00,39.0,21.0,-100.00,NNE,25,0.0,2.0,48,0.00,,,0.00,meteohub,2013-02-22 18:57:00,
2013-02-22 14:02:00,38.8,21.7,-100.00,East,91,0.0,3.0,50,0.00,,,0.00,meteohub,2013-02-22 19:02:00,
2013-02-22 14:07:00,39.9,21.7,-100.00,ENE,70,0.0,5.0,48,0.00,,,0.00,meteohub,2013-02-22 19:07:00,
2013-02-22 14:12:00,40.3,22.6,-100.00,ESE,104,0.0,5.0,49,0.00,,,0.00,meteohub,2013-02-22 19:12:00,
2013-02-22 14:17:00,39.7,21.7,-100.00,East,99,0.0,6.0,48,0.00,,,0.00,meteohub,2013-02-22 19:17:00,
2013-02-22 14:22:00,41.0,21.7,-100.00,NE,49,2.0,6.0,46,0.00,,,0.00,meteohub,2013-02-22 19:22:00,
2013-02-22 14:27:00,40.6,20.5,-100.00,ESE,123,0.0,7.0,44,0.00,,,0.00,meteohub,2013-02-22 19:27:00,
2013-02-22 14:32:00,42.4,23.7,-100.00,SE,135,0.0,7.0,47,0.00,,,0.00,meteohub,2013-02-22 19:32:00,
2013-02-22 14:37:00,41.7,21.4,-100.00,NE,56,0.0,7.0,44,0.00,,,0.00,meteohub,2013-02-22 19:37:00,
2013-02-22 14:42:00,41.7,22.5,-100.00,NE,47,1.0,6.0,46,0.00,,,0.00,meteohub,2013-02-22 19:42:00,
2013-02-22 14:47:00,41.7,22.5,-100.00,NE,47,0.0,4.0,46,0.00,,,0.00,meteohub,2013-02-22 19:47:00,
2013-02-22 14:52:00,41.0,21.2,-100.00,NE,47,0.0,4.0,45,0.00,,,0.00,meteohub,2013-02-22 19:52:00,
2013-02-22 14:57:00,41.0,22.3,-100.00,NE,47,0.0,4.0,47,0.00,,,0.00,meteohub,2013-02-22 19:57:00,
2013-02-22 15:02:00,42.3,23.0,-100.00,NE,47,0.0,3.0,46,0.00,,,0.00,meteohub,2013-02-22 20:02:00,
2013-02-22 15:07:00,41.7,20.3,-100.00,NE,47,0.0,0.0,42,0.00,,,0.00,meteohub,2013-02-22 20:07:00,
2013-02-22 15:12:00,41.7,22.5,-100.00,NE,47,0.0,0.0,46,0.00,,,0.00,meteohub,2013-02-22 20:12:00,
2013-02-22 15:17:00,41.2,21.4,-100.00,NE,56,0.0,4.0,45,0.00,,,0.00,meteohub,2013-02-22 20:17:00,
2013-02-22 15:22:00,41.7,20.8,-100.00,NE,56,0.0,4.0,43,0.00,,,0.00,meteohub,2013-02-22 20:22:00,
2013-02-22 15:27:00,41.7,20.8,-100.00,SSE,168,0.0,4.0,43,0.00,,,0.00,meteohub,2013-02-22 20:27:00,
2013-02-22 15:32:00,40.5,19.8,-100.00,South,185,0.0,4.0,43,0.00,,,0.00,meteohub,2013-02-22 20:32:00,
2013-02-22 15:37:00,41.2,22.5,-100.00,SSE,164,0.0,4.0,47,0.00,,,0.00,meteohub,2013-02-22 20:37:00,
2013-02-22 15:42:00,40.6,21.9,-100.00,SSE,164,0.0,4.0,47,0.00,,,0.00,meteohub,2013-02-22 20:42:00,
2013-02-22 15:47:00,41.2,22.5,-100.00,ENE,66,2.0,4.0,47,0.00,,,0.00,meteohub,2013-02-22 20:47:00,
2013-02-22 15:52:00,39.9,21.7,-100.00,NE,53,0.0,6.0,48,0.00,,,0.00,meteohub,2013-02-22 20:52:00,
2013-02-22 15:57:00,40.3,22.6,-100.00,NE,53,0.0,6.0,49,0.00,,,0.00,meteohub,2013-02-22 20:57:00,
2013-02-22 16:02:00,39.7,21.7,-100.00,NNE,22,0.0,6.0,48,0.00,,,0.00,meteohub,2013-02-22 21:02:00,
2013-02-22 16:07:00,39.9,25.5,-100.00,NNE,22,0.0,5.0,56,0.00,,,0.00,meteohub,2013-02-22 21:07:00,
2013-02-22 16:12:00,41.0,28.6,-100.00,NNE,22,0.0,5.0,61,0.00,,,0.00,meteohub,2013-02-22 21:12:00,
2013-02-22 16:17:00,40.5,26.1,-100.00,East,88,0.0,5.0,56,0.00,,,0.00,meteohub,2013-02-22 21:17:00,
2013-02-22 16:22:00,40.6,26.6,-100.00,East,90,0.0,3.0,57,0.00,,,0.00,meteohub,2013-02-22 21:22:00,
2013-02-22 16:27:00,41.2,27.9,-100.00,ESE,113,0.0,3.0,59,0.00,,,0.00,meteohub,2013-02-22 21:27:00,
2013-02-22 16:32:00,41.2,26.2,-100.00,SSE,164,4.0,4.0,55,0.00,,,0.00,meteohub,2013-02-22 21:32:00,
2013-02-22 16:37:00,40.6,25.3,-100.00,NNE,19,0.0,6.0,54,0.00,,,0.00,meteohub,2013-02-22 21:37:00,
2013-02-22 16:42:00,39.7,22.6,-100.00,ENE,66,0.0,6.0,50,0.00,,,0.00,meteohub,2013-02-22 21:42:00,
2013-02-22 16:47:00,39.4,23.2,-100.00,ENE,66,0.0,6.0,52,0.00,,,0.00,meteohub,2013-02-22 21:47:00,
2013-02-22 16:52:00,39.4,22.8,-100.00,ENE,66,0.0,6.0,51,0.00,,,0.00,meteohub,2013-02-22 21:52:00,
2013-02-22 16:57:00,37.4,20.8,-100.00,ENE,66,0.0,1.0,51,0.00,,,0.00,meteohub,2013-02-22 21:57:00,
2013-02-22 17:02:00,36.7,20.3,-100.00,ENE,66,0.0,1.0,51,0.00,,,0.00,meteohub,2013-02-22 22:02:00,
2013-02-22 17:08:00,37.0,20.7,-100.00,SW,226,0.0,0.0,51,0.00,,,0.00,meteohub,2013-02-22 22:08:00,
2013-02-22 17:13:00,36.3,20.3,-100.00,South,189,0.0,6.0,52,0.00,,,0.00,meteohub,2013-02-22 22:13:00,
2013-02-22 17:18:00,36.0,20.5,-100.00,South,189,0.0,6.0,53,0.00,,,0.00,meteohub,2013-02-22 22:18:00,
2013-02-22 17:23:00,36.0,20.5,-100.00,South,189,0.0,6.0,53,0.00,,,0.00,meteohub,2013-02-22 22:23:00,
2013-02-22 17:28:00,35.1,20.1,-100.00,South,189,0.0,1.0,54,0.00,,,0.00,meteohub,2013-02-22 22:28:00,
2013-02-22 17:33:00,36.0,21.4,-100.00,South,189,0.0,0.0,55,0.00,,,0.00,meteohub,2013-02-22 22:33:00,
2013-02-22 17:38:00,36.0,21.7,-100.00,South,189,0.0,0.0,56,0.00,,,0.00,meteohub,2013-02-22 22:38:00,
2013-02-22 17:43:00,36.1,21.9,-100.00,South,189,0.0,0.0,56,0.00,,,0.00,meteohub,2013-02-22 22:43:00,
2013-02-22 17:48:00,36.1,22.5,-100.00,South,189,0.0,0.0,57,0.00,,,0.00,meteohub,2013-02-22 22:48:00,
2013-02-22 17:53:00,35.1,21.7,-100.00,South,189,0.0,0.0,58,0.00,,,0.00,meteohub,2013-02-22 22:53:00,
2013-02-22 17:58:00,35.6,22.6,-100.00,South,189,0.0,0.0,59,0.00,,,0.00,meteohub,2013-02-22 22:58:00,
2013-02-22 18:04:00,34.9,22.8,-100.00,South,189,0.0,0.0,61,0.00,,,0.00,meteohub,2013-02-22 23:04:00,
2013-02-22 18:09:00,34.2,22.5,-100.00,SE,125,0.0,0.0,62,0.00,,,0.00,meteohub,2013-02-22 23:09:00,
2013-02-22 18:14:00,34.3,22.6,-100.00,SSE,164,0.0,5.0,62,0.00,,,0.00,meteohub,2013-02-22 23:14:00,
2013-02-22 18:19:00,33.8,22.5,-100.00,SSE,164,0.0,5.0,63,0.00,,,0.00,meteohub,2013-02-22 23:19:00,
2013-02-22 18:24:00,34.2,22.8,-100.00,South,175,0.0,5.0,63,0.00,,,0.00,meteohub,2013-02-22 23:24:00,
2013-02-22 18:29:00,34.3,23.7,-100.00,South,175,0.0,6.0,65,0.00,,,0.00,meteohub,2013-02-22 23:29:00,
2013-02-22 18:34:00,33.8,23.0,-100.00,SSE,165,0.0,2.0,64,0.00,,,0.00,meteohub,2013-02-22 23:34:00,
2013-02-22 18:39:00,34.3,23.7,-100.00,East,101,0.0,4.0,65,0.00,,,0.00,meteohub,2013-02-22 23:39:00,
2013-02-22 18:44:00,33.8,23.4,-100.00,East,101,0.0,4.0,65,0.00,,,0.00,meteohub,2013-02-22 23:44:00,
2013-02-22 18:49:00,33.8,23.4,-100.00,East,101,0.0,4.0,65,0.00,,,0.00,meteohub,2013-02-22 23:49:00,
2013-02-22 18:54:00,33.8,23.4,-100.00,SE,146,3.0,3.0,65,0.00,,,0.00,meteohub,2013-02-22 23:54:00,
2013-02-22 18:59:00,32.7,22.6,-100.00,SSE,151,0.0,4.0,66,0.00,,,0.00,meteohub,2013-02-22 23:59:00,
2013-02-22 19:05:00,32.7,22.3,-100.00,ESE,105,0.0,4.0,65,0.00,,,0.00,meteohub,2013-02-23 00:05:00,
2013-02-22 19:10:00,33.3,23.2,-100.00,SSE,153,0.0,4.0,66,0.00,,,0.00,meteohub,2013-02-23 00:10:00,
2013-02-22 19:15:00,33.1,22.6,-100.00,SSE,153,0.0,3.0,65,0.00,,,0.00,meteohub,2013-02-23 00:15:00,
2013-02-22 19:20:00,32.0,22.3,-100.00,SSE,153,0.0,3.0,67,0.00,,,0.00,meteohub,2013-02-23 00:20:00,
2013-02-22 19:25:00,32.7,22.3,-100.00,SSE,153,0.0,3.0,65,0.00,,,0.00,meteohub,2013-02-23 00:25:00,
2013-02-22 19:30:00,32.7,22.6,-100.00,SE,132,1.0,5.0,66,0.00,,,0.00,meteohub,2013-02-23 00:30:00,
2013-02-22 19:35:00,32.2,22.1,-100.00,SSE,160,0.0,6.0,66,0.00,,,0.00,meteohub,2013-02-23 00:35:00,
2013-02-22 19:40:00,33.3,23.2,-100.00,SSE,160,0.0,6.0,66,0.00,,,0.00,meteohub,2013-02-23 00:40:00,
2013-02-22 19:45:00,33.8,23.7,-100.00,SE,143,1.0,6.0,66,0.00,,,0.00,meteohub,2013-02-23 00:45:00,
2013-02-22 19:50:00,32.5,22.5,-100.00,SE,143,0.0,4.0,66,0.00,,,0.00,meteohub,2013-02-23 00:50:00,
2013-02-22 19:55:00,32.5,22.5,-100.00,SE,143,0.0,4.0,66,0.00,,,0.00,meteohub,2013-02-23 00:55:00,
2013-02-22 20:00:00,32.5,22.5,-100.00,SE,143,0.0,4.0,66,0.00,,,0.00,meteohub,2013-02-23 01:00:00,
2013-02-22 20:05:00,32.7,23.4,-100.00,SE,143,0.0,0.0,68,0.00,,,0.00,meteohub,2013-02-23 01:05:00,
2013-02-22 20:10:00,33.1,23.4,-100.00,SE,143,0.0,0.0,67,0.00,,,0.00,meteohub,2013-02-23 01:10:00,
2013-02-22 20:15:00,32.5,22.8,-100.00,SE,143,0.0,0.0,67,0.00,,,0.00,meteohub,2013-02-23 01:15:00,
2013-02-22 20:21:00,32.5,22.8,-100.00,SSE,164,0.0,0.0,67,0.00,,,0.00,meteohub,2013-02-23 01:21:00,
2013-02-22 20:26:00,32.5,23.2,-100.00,SSE,164,0.0,2.0,68,0.00,,,0.00,meteohub,2013-02-23 01:26:00,
2013-02-22 20:31:00,32.2,22.5,-100.00,SSE,164,0.0,2.0,67,0.00,,,0.00,meteohub,2013-02-23 01:31:00,
2013-02-22 20:36:00,32.5,23.2,-100.00,SSE,164,0.0,2.0,68,0.00,,,0.00,meteohub,2013-02-23 01:36:00,
2013-02-22 20:41:00,32.0,22.6,-100.00,SSE,164,0.0,0.0,68,0.00,,,0.00,meteohub,2013-02-23 01:41:00,
2013-02-22 20:46:00,33.4,24.4,-100.00,SSE,164,0.0,0.0,69,0.00,,,0.00,meteohub,2013-02-23 01:46:00,
2013-02-22 20:51:00,32.5,23.2,-100.00,SSE,164,0.0,0.0,68,0.00,,,0.00,meteohub,2013-02-23 01:51:00,
2013-02-22 20:56:00,32.7,23.7,-100.00,SSE,164,0.0,0.0,69,0.00,,,0.00,meteohub,2013-02-23 01:56:00,
2013-02-22 21:01:00,33.1,24.1,-100.00,SSE,164,0.0,0.0,69,0.00,,,0.00,meteohub,2013-02-23 02:01:00,
2013-02-22 21:06:00,32.2,23.2,-100.00,SSE,164,0.0,0.0,69,0.00,,,0.00,meteohub,2013-02-23 02:06:00,
2013-02-22 21:11:00,32.2,22.8,-100.00,SSE,164,0.0,0.0,68,0.00,,,0.00,meteohub,2013-02-23 02:11:00,
2013-02-22 21:16:00,31.6,22.3,-100.00,SSE,164,0.0,0.0,68,0.00,,,0.00,meteohub,2013-02-23 02:16:00,
2013-02-22 21:21:00,32.4,23.4,-100.00,SSE,164,0.0,0.0,69,0.00,,,0.00,meteohub,2013-02-23 02:21:00,
2013-02-22 21:26:00,32.0,23.0,-100.00,SSE,164,0.0,0.0,69,0.00,,,0.00,meteohub,2013-02-23 02:26:00,
2013-02-22 21:32:00,32.0,23.0,-100.00,SSE,164,0.0,0.0,69,0.00,,,0.00,meteohub,2013-02-23 02:32:00,
2013-02-22 21:37:00,31.8,22.8,-100.00,SSE,164,0.0,0.0,69,0.00,,,0.00,meteohub,2013-02-23 02:37:00,
2013-02-22 21:42:00,32.4,23.7,-100.00,SSE,164,0.0,0.0,70,0.00,,,0.00,meteohub,2013-02-23 02:42:00,
2013-02-22 21:47:00,32.4,23.7,-100.00,SSE,164,0.0,0.0,70,0.00,,,0.00,meteohub,2013-02-23 02:47:00,
2013-02-22 21:52:00,31.5,22.5,-100.00,SSE,164,0.0,0.0,69,0.00,,,0.00,meteohub,2013-02-23 02:52:00,
2013-02-22 21:57:00,31.8,23.2,-100.00,SSE,164,0.0,0.0,70,0.00,,,0.00,meteohub,2013-02-23 02:57:00,
2013-02-22 22:02:00,32.7,24.1,-100.00,SSE,164,0.0,0.0,70,0.00,,,0.00,meteohub,2013-02-23 03:02:00,
2013-02-22 22:07:00,31.5,23.2,-100.00,SSE,164,0.0,0.0,71,0.00,,,0.00,meteohub,2013-02-23 03:07:00,
2013-02-22 22:12:00,32.0,23.7,-100.00,SSE,164,0.0,0.0,71,0.00,,,0.00,meteohub,2013-02-23 03:12:00,
2013-02-22 22:17:00,31.5,23.2,-100.00,SSE,164,0.0,0.0,71,0.00,,,0.00,meteohub,2013-02-23 03:17:00,
2013-02-22 22:22:00,31.8,23.5,-100.00,SSE,164,0.0,0.0,71,0.00,,,0.00,meteohub,2013-02-23 03:22:00,
2013-02-22 22:27:00,31.5,23.2,-100.00,SSE,164,0.0,0.0,71,0.00,,,0.00,meteohub,2013-02-23 03:27:00,
2013-02-22 22:32:00,31.3,23.4,-100.00,SSE,164,0.0,0.0,72,0.00,,,0.00,meteohub,2013-02-23 03:32:00,
2013-02-22 22:37:00,31.3,23.4,-100.00,SSE,164,0.0,0.0,72,0.00,,,0.00,meteohub,2013-02-23 03:37:00,
2013-02-22 22:42:00,31.3,23.4,-100.00,SSE,164,0.0,0.0,72,0.00,,,0.00,meteohub,2013-02-23 03:42:00,
2013-02-22 22:47:00,30.6,22.6,-100.00,SSE,164,0.0,0.0,72,0.00,,,0.00,meteohub,2013-02-23 03:47:00,
2013-02-22 22:52:00,31.8,24.1,-100.00,SSE,164,0.0,0.0,73,0.00,,,0.00,meteohub,2013-02-23 03:52:00,
2013-02-22 22:57:00,30.9,23.4,-100.00,SSE,164,0.0,0.0,73,0.00,,,0.00,meteohub,2013-02-23 03:57:00,
2013-02-22 23:02:00,30.2,22.6,-100.00,SSE,164,0.0,0.0,73,0.00,,,0.00,meteohub,2013-02-23 04:02:00,
2013-02-22 23:07:00,30.9,23.4,-100.00,SSE,164,0.0,0.0,73,0.00,,,0.00,meteohub,2013-02-23 04:07:00,
2013-02-22 23:12:00,30.6,23.0,-100.00,SSE,164,0.0,0.0,73,0.00,,,0.00,meteohub,2013-02-23 04:12:00,
2013-02-22 23:17:00,30.2,23.0,-100.00,SSE,164,0.0,0.0,74,0.00,,,0.00,meteohub,2013-02-23 04:17:00,
2013-02-22 23:22:00,30.2,23.0,-100.00,SSE,164,0.0,0.0,74,0.00,,,0.00,meteohub,2013-02-23 04:22:00,
2013-02-22 23:27:00,29.7,22.6,-100.00,SSE,164,0.0,0.0,75,0.00,,,0.00,meteohub,2013-02-23 04:27:00,
2013-02-22 23:32:00,30.0,23.0,-100.00,SSE,164,0.0,0.0,75,0.00,,,0.00,meteohub,2013-02-23 04:32:00,
2013-02-22 23:37:00,29.5,22.5,-100.00,SSE,164,0.0,0.0,75,0.00,,,0.00,meteohub,2013-02-23 04:37:00,
2013-02-22 23:42:00,29.5,22.5,-100.00,SSE,164,0.0,0.0,75,0.00,,,0.00,meteohub,2013-02-23 04:42:00,
2013-02-22 23:47:00,29.5,22.8,-100.00,SSE,164,0.0,0.0,76,0.00,,,0.00,meteohub,2013-02-23 04:47:00,
2013-02-22 23:52:00,30.2,23.5,-100.00,SSE,164,0.0,0.0,76,0.00,,,0.00,meteohub,2013-02-23 04:52:00,
2013-02-22 23:57:00,29.7,23.0,-100.00,SSE,164,0.0,0.0,76,0.00,,,0.00,meteohub,2013-02-23 04:57:00,